Погода Старая Русса

Хотите узнать прогноз погоды Старая Русса? Тогда Вам сюда: Погода Старая Русса

Поиск расширенной информации на нашем сайте:

Полезная информация:

Новости сайта



14.11.2019
Обновлён Долгосрочный прогноз погоды по России и другим странам хСССР на ноябрь-декабрь 2019 года.
Опубликованы прогностические карты: Предварительный прогноз на декабрь 2019 года, Предварительный прогноз на январь 2020 года, Предварительная схема синоптических процессов на декабрь 2019 г..

11.11.2019
Обновлены Долгосрочный прогноз погоды по России и другим странам хСССР на ноябрь-декабрь 2019 года и Предварительный прогноз на зиму 2019/2020 годов

04.11.2019
Опубликован Долгосрочный прогноз погоды по России и другим странам хСССР на ноябрь 2019 года
Сравнение прогнозируемой аномалии приземной температуры воздуха на ноябрь 2019 года по разным моделям
Предварительный прогноз на зиму 2019/2020 года




Погода Старая Русса - сегодня

Время (UTC), дата Ветер
(°,м/с) 
Видим.   Явления Облачность Т
(°С)
Тd
(°С)
f(%) Тe
(°С)
Pmin
(гПа)
dP
(гПа)
Po
(мм)
O2
(г/м3)
Тmin Tmax R s Состояние
почвы
00 18.11.19 190 (Ю) 4000 м  дымка{дождь, морось}  10/10 210 м 
[St]
+8.4 +7.8 96 +9  1025.3  0.1  767  298           
03 18.11.19 170 (Ю) 4000 м  слаб. дождь  10/10 300 м 
[Frnb|Ns]
+8.2 +7.6 96 +9  1025.3  767  299  +8.2    0.8     
06 18.11.19 170 (Ю) 4000 м  {дождь}  10/10 480 м 
[Frnb]
+7.9 +7.3 96 +9  1025.9  0.6  767  299  +7.9    0.4     
09 18.11.19 150 (ЮВ) 4000 м  дымка  10/10 480 м 
[Sc]
+8 +7.2 95 +8  1027  1.1  768  299           
12 18.11.19 140 (ЮВ) 20000 м    10/10 300 м 
[St]
+7.6 +6.1 90 +8  1026.8  -0.3  768  300           
15 18.11.19 130 (ЮВ) 10 км  слаб. морось  10/10 300 м 
[St]
+6.7 +5.5 92 +5  1026.9  0.1  768  301      0.1     
18 18.11.19 110 (В) 20000 м  {морось}  9/9 270 м 
[St]
+6.3 +4.9 91 +5  1026.4  -0.5  767  302    +8  0.1     
21 18.11.19 110 (В) 20000 м    10/10 420 м 
[Sc]
+6.6 +5.1 90 +6  1026.9  0.5  768  301           
00 19.11.19 110 (В) 20000 м  {дождь}  3/0 верхняя 
[Ci sp]
+5.5 +4.3 92 +5  1026.7  -0.2  768  303           
03 19.11.19 140 (ЮВ) 20000 м    10/10 400 м 
[St]
+6.4 +4.7 89 +6  1026.6  -0.1  768  302  +5.5    0.0     
06 19.11.19 140 (ЮВ) 20000 м    10/10 420 м 
[Sc]
+6.6 +4.4 86 +6  1026.8  0.2  768  301  +5.5    0.0     
09 19.11.19 170 (Ю) 20000 м    10/10 480 м 
[Sc]
+6.3 +3.9 85 +5  1027.6  0.8  768  302           
12 19.11.19 170 (Ю) 20000 м    10/10 450 м 
[Sc]
+6 +3.6 85 +6  1028.2  0.6  769  303           
15 19.11.19 170 (Ю) 10 км  слаб. морось  10/10 360 м 
[St]
+4.7 +2.6 86 +6  1029.2  770  304      0.0     
18 19.11.19 150 (ЮВ) 10 км  слаб. морось  10/10 400 м 
[St]
+2.2 +0.5 88 +1  1030.6  1.4  771  308    +6.7  0.0     
21 19.11.19 140 (ЮВ) 20000 м  {морось}  10/10 800 м 
[Sc]
+1.7 -1.7 78 +1  1031.6  771  309           
00 20.11.19 140 (ЮВ) 20000 м  {морось}  10/10 500 м 
[Sc]
+1.7 -1.2 81 +1  1032.3  0.7  772  309           
03 20.11.19 140 (ЮВ) 20000 м    10/10 660 м 
[Sc]
+1.8 -0.9 82 1033.3  773  309  +1.6    0.0     
06 20.11.19 150 (ЮВ) 20000 м    10/10 570 м 
[Sc]
+2 -0.6 83 +1  1034.4  1.1  773  310  +1.6    0.0     
09 20.11.19 150 (ЮВ) 20000 м    10/10 800 м 
[Sc]
+2.9 -0.9 76 +2  1036  1.6  775  309           
12 20.11.19 160 (Ю) 20000 м    10/10 1020 м 
[Sc]
+4 -0.6 72 +3  1036.9  0.9  775  308           
15 20.11.19 150 (ЮВ) 20000 м    10/10 660 м 
[Sc]
+4.2 +0.8 79 +3  1037.3  0.4  776  308           
18 20.11.19 150 (ЮВ) 20000 м    10/10 700 м 
[Sc]
+4.1 +1.5 83 +4  1038.3  776  308    +4.3       
21 20.11.19 120 (ЮВ) 20000 м    10/10 800 м 
[Sc]
+4.3 +2.2 86 +4  1038.8  0.5  777  308           
00 21.11.19 140 (ЮВ) 20000 м    10/10 660 м 
[Sc]
+5.3 +1.8 78 +4  1039.4  0.6  777  307           
Время (UTC), дата Ветер
(°,м/с) 
Видим.   Явления Облачность Т
(°С)
Тd
(°С)
f(%) Тe
(°С)
Pmin
(гПа)
dP
(гПа)
Po
(мм)
O2
(г/м3)
Тmin Tmax R s Состояние
почвы

Для получения пояснительной информации подведите курсор к названию столбца.

ПОГОДА Старая Русса - архив

Всё, что Вы хотите узнать о погоде Старая Русса - удобно и подробно!

Выберите нужную дату (начиная с 1 января 2019* года) и нажмите кнопку "Найти".
Будут отображены архивные сводки погоды по пункту Старая Русса, начиная с указанной даты.


Отображать данные в формате CSV (для использования в таблицах Excel)


Внимание! Наш архив погоды предназначен исключительно для личного некоммерческого использования в познавательных целях. Если Вам необходимы официальные справки о состоянии погоды (для производственных, юридических, коммерческих и т.п. целей), обращайтесь в органы Росгидромета.

*Примечание: данная дата относится к архиву по метеостанциям СССР (Россия, СНГ, Балтия).
Архив по метеостанциям Зарубежной Европы и Азии (кроме Китая) хранится 10 дней, по другим регионам земного шара (Китай, Африка, Америка, Австралия, Океания) - 1 день.

Старая Русса - район местоположения метеостанции


Название, широта, долгота, высота метеостанции:
Старая Русса 58°ш. 31.3°д. 25 м над ур. моря [Российская Федерация]

Дополнительная информация

В oтличие oт бoльшинства пoгoдных сайтoв мы публикуем пoдрoбную метеoинфoрмацию в детальнoм прoфессиoнальнoм фoрмате.

Характеристики температуры и влажнoсти вoздуха измеряются на высoте 2 м в тени вдали oт зданий и деревьев.
Скoрoсть ветра измеряется на высoте 10 м (на урoвне рoста челoвека скoрoсть ветра ниже в 1.5-2 раза). Если метеoстанция нахoдится в гoрoде или в лесу, тo скoрoсть ветра занижена на 2-4 м/с пo сравнению с oткрытым местoм. Скoрoсть ветра над акватoриями крупных рек и oзёр, а также на вершинах хoлмoв на 2-5 м/с выше, чем в oбычных услoвиях.
Атмoсфернoе давление в разных тoчках местнoсти мoжет значительнo oтличаться oт давления на метеoстанции, в зависимoсти oт услoвий рельефа (при пoдъёме на 10 м давление пoнижается примернo на 1 мм рт.ст.).